Find Meteor-3M No. 1

NORAD ID: 27001 Int'l Des: 2001-056 Owner: RGMS/VNIEMR Country: RU operational
LEOCIRCULARRETROGRADESSO

实时位置

正在加载3D地球...

关于 Meteor-3M No. 1

正在加载描述...

即将过境

Passes for default location (London). Set your location on the main map for personalized predictions.

高度历史

Loading altitude history...

两行轨道根数

1 27001U 01056A 26107.11027181 -.00000021 00000-0 30049-4 0 9993
2 27001 99.8237 292.4316 0013536 357.4160 110.8022 13.69039777216523
Epoch: Apr 17, 2026 • Age: 11 hours

当前状态

高度 1015.0 km
速度 7.34 km/s
星下点 11.64°N, 67.3°E
发射日期 Dec 10, 2001
运行时间 24.3 years
类型 other

技术详情

分类 Payload
质量 2476.00 kg
干质量 2300.00 kg
总质量 2476.00 kg
长度 6.50 m
直径 2.90 m
跨度 14.00 m
形状 Cyl + 2 Pan
制造商 VNIEMR
平台类型 Meteor-3
阶段状态 In Orbit
所有者/国家 RGMS/VNIEMR/RU

Most Searched